Time,TemperatureF,DewpointF,PressureIn,WindDirection,WindDirectionDegrees,WindSpeedMPH,WindSpeedGustMPH,Humidity,HourlyPrecipIn,Conditions,Clouds,dailyrainin,SolarRadiationWatts/m^2,SoftwareType,DateUTC
2013-03-10 00:00:00,26.4,23.9,30.32,North,0,0.0,0.0,90,0.00,CLR,,0.90,0.0,WeatherDisplay:10.37,2013-03-10 05:00:00,
2013-03-10 00:05:00,26.7,24.2,30.32,North,0,0.0,0.0,90,0.00,RA,,0.00,0.0,WeatherDisplay:10.37,2013-03-10 05:05:00,
2013-03-10 00:10:00,26.8,24.3,30.32,North,0,0.0,0.0,90,0.00,CLR,,0.00,0.0,WeatherDisplay:10.37,2013-03-10 05:10:00,
2013-03-10 00:15:00,27.1,24.6,30.33,North,0,0.0,0.0,90,0.00,CLR,,0.00,0.0,WeatherDisplay:10.37,2013-03-10 05:15:00,
2013-03-10 00:20:00,27.2,24.7,30.32,North,0,0.0,0.0,90,0.00,CLR,,0.00,0.0,WeatherDisplay:10.37,2013-03-10 05:20:00,
2013-03-10 00:25:00,27.3,24.8,30.33,North,0,0.0,0.0,90,0.00,CLR,,0.00,0.0,WeatherDisplay:10.37,2013-03-10 05:25:00,
2013-03-10 00:30:00,27.2,24.7,30.33,North,0,0.0,0.0,90,0.00,CLR,,0.00,0.0,WeatherDisplay:10.37,2013-03-10 05:30:00,
2013-03-10 00:35:00,27.2,24.7,30.33,North,0,0.0,0.0,90,0.00,CLR,,0.00,0.0,WeatherDisplay:10.37,2013-03-10 05:35:00,
2013-03-10 00:40:00,27.1,24.6,30.34,North,0,0.0,0.0,90,0.00,CLR,,0.00,0.0,WeatherDisplay:10.37,2013-03-10 05:40:00,
2013-03-10 00:45:00,27.0,24.5,30.33,North,0,0.0,0.0,90,0.00,CLR,,0.00,0.0,WeatherDisplay:10.37,2013-03-10 05:45:00,
2013-03-10 00:50:00,26.9,24.4,30.33,North,0,0.0,0.0,90,0.00,CLR,,0.00,0.0,WeatherDisplay:10.37,2013-03-10 05:50:00,
2013-03-10 00:55:00,26.8,24.3,30.33,North,0,0.0,0.0,90,0.00,CLR,,0.00,0.0,WeatherDisplay:10.37,2013-03-10 05:55:00,
2013-03-10 01:00:00,26.7,24.2,30.33,North,0,0.0,0.0,90,0.00,CLR,,0.00,0.0,WeatherDisplay:10.37,2013-03-10 06:00:00,
2013-03-10 01:05:00,26.6,24.1,30.33,North,0,0.0,0.0,90,0.00,CLR,,0.00,0.0,WeatherDisplay:10.37,2013-03-10 06:05:00,
2013-03-10 01:10:00,26.5,24.2,30.33,North,0,0.0,0.0,91,0.00,CLR,,0.00,0.0,WeatherDisplay:10.37,2013-03-10 06:10:00,
2013-03-10 01:15:00,26.5,24.0,30.33,North,0,0.0,0.0,90,0.00,CLR,,0.00,0.0,WeatherDisplay:10.37,2013-03-10 06:15:00,
2013-03-10 01:20:00,26.4,24.1,30.33,North,0,0.0,0.0,91,0.00,CLR,,0.00,0.0,WeatherDisplay:10.37,2013-03-10 06:20:00,
2013-03-10 01:25:00,26.4,24.1,30.33,North,0,0.0,0.0,91,0.00,CLR,,0.00,0.0,WeatherDisplay:10.37,2013-03-10 06:25:00,
2013-03-10 01:30:00,26.5,24.2,30.33,North,0,0.0,0.0,91,0.00,CLR,,0.00,0.0,WeatherDisplay:10.37,2013-03-10 06:30:00,
2013-03-10 01:35:00,26.5,24.2,30.33,North,0,0.0,0.0,91,0.00,CLR,,0.00,0.0,WeatherDisplay:10.37,2013-03-10 06:35:00,
2013-03-10 01:40:00,26.5,24.2,30.33,North,0,0.0,0.0,91,0.00,CLR,,0.00,0.0,WeatherDisplay:10.37,2013-03-10 06:40:00,
2013-03-10 01:45:00,26.5,24.2,30.33,North,0,0.0,0.0,91,0.00,CLR,,0.00,0.0,WeatherDisplay:10.37,2013-03-10 06:45:00,
2013-03-10 01:50:00,26.5,24.2,30.33,North,0,0.0,0.0,91,0.00,CLR,,0.00,0.0,WeatherDisplay:10.37,2013-03-10 06:50:00,
2013-03-10 01:55:00,26.5,24.2,30.33,North,0,0.0,0.0,91,0.00,CLR,,0.00,0.0,WeatherDisplay:10.37,2013-03-10 06:55:00,
2013-03-10 03:00:00,26.6,24.3,30.33,North,0,0.0,0.0,91,0.00,CLR,,0.00,0.0,WeatherDisplay:10.37,2013-03-10 07:00:00,
2013-03-10 03:05:00,26.6,24.3,30.33,North,0,0.0,0.0,91,0.00,CLR,,0.00,0.0,WeatherDisplay:10.37,2013-03-10 07:05:00,
2013-03-10 03:10:00,26.5,24.2,30.33,North,0,0.0,0.0,91,0.00,CLR,,0.00,0.0,WeatherDisplay:10.37,2013-03-10 07:10:00,
2013-03-10 03:15:00,26.4,24.1,30.33,North,0,0.0,0.0,91,0.00,CLR,,0.00,0.0,WeatherDisplay:10.37,2013-03-10 07:15:00,
2013-03-10 03:20:00,26.3,24.0,30.33,North,0,0.0,0.0,91,0.00,CLR,,0.00,0.0,WeatherDisplay:10.37,2013-03-10 07:20:00,
2013-03-10 03:25:00,26.3,24.0,30.33,North,0,0.0,0.0,91,0.00,CLR,,0.00,0.0,WeatherDisplay:10.37,2013-03-10 07:25:00,
2013-03-10 03:30:00,26.1,23.8,30.33,North,0,0.0,0.0,91,0.00,CLR,,0.00,0.0,WeatherDisplay:10.37,2013-03-10 07:30:00,
2013-03-10 03:35:00,25.9,23.6,30.33,North,0,0.0,0.0,91,0.00,CLR,,0.00,0.0,WeatherDisplay:10.37,2013-03-10 07:35:00,
2013-03-10 03:40:00,25.8,23.5,30.33,North,0,0.0,0.0,91,0.00,CLR,,0.00,0.0,WeatherDisplay:10.37,2013-03-10 07:40:00,
2013-03-10 03:45:00,25.6,23.3,30.33,North,0,0.0,0.0,91,0.00,CLR,,0.00,0.0,WeatherDisplay:10.37,2013-03-10 07:45:00,
2013-03-10 03:50:00,25.4,23.1,30.33,North,0,0.0,0.0,91,0.00,CLR,,0.00,0.0,WeatherDisplay:10.37,2013-03-10 07:50:00,
2013-03-10 03:55:00,25.3,23.0,30.33,North,0,0.0,0.0,91,0.00,CLR,,0.00,0.0,WeatherDisplay:10.37,2013-03-10 07:55:00,
2013-03-10 04:00:00,25.2,22.9,30.32,North,0,0.0,0.0,91,0.00,CLR,,0.00,0.0,WeatherDisplay:10.37,2013-03-10 08:00:00,
2013-03-10 04:05:00,25.1,22.8,30.33,North,0,0.0,0.0,91,0.00,CLR,,0.00,0.0,WeatherDisplay:10.37,2013-03-10 08:05:00,
2013-03-10 04:10:00,25.1,22.8,30.33,North,0,0.0,0.0,91,0.00,CLR,,0.00,0.0,WeatherDisplay:10.37,2013-03-10 08:10:00,
2013-03-10 04:15:00,25.2,22.9,30.33,North,0,0.0,0.0,91,0.00,CLR,,0.00,0.0,WeatherDisplay:10.37,2013-03-10 08:15:00,
2013-03-10 04:20:00,25.2,22.9,30.33,North,0,0.0,0.0,91,0.00,CLR,,0.00,0.0,WeatherDisplay:10.37,2013-03-10 08:20:00,
2013-03-10 04:25:00,25.2,22.9,30.33,North,0,0.0,0.0,91,0.00,CLR,,0.00,0.0,WeatherDisplay:10.37,2013-03-10 08:25:00,
2013-03-10 04:30:00,25.1,22.8,30.33,North,0,0.0,0.0,91,0.00,CLR,,0.00,0.0,WeatherDisplay:10.37,2013-03-10 08:30:00,
2013-03-10 04:35:00,25.0,22.7,30.33,North,0,0.0,0.0,91,0.00,CLR,,0.00,0.0,WeatherDisplay:10.37,2013-03-10 08:35:00,
2013-03-10 04:40:00,25.0,22.7,30.33,North,0,0.0,0.0,91,0.00,CLR,,0.00,0.0,WeatherDisplay:10.37,2013-03-10 08:40:00,
2013-03-10 04:45:00,24.9,22.6,30.33,North,0,0.0,0.0,91,0.00,CLR,,0.00,0.0,WeatherDisplay:10.37,2013-03-10 08:45:00,
2013-03-10 04:50:00,24.9,22.6,30.33,North,0,0.0,0.0,91,0.00,CLR,,0.00,0.0,WeatherDisplay:10.37,2013-03-10 08:50:00,
2013-03-10 04:55:00,24.8,22.5,30.34,North,0,0.0,0.0,91,0.00,CLR,,0.00,0.0,WeatherDisplay:10.37,2013-03-10 08:55:00,
2013-03-10 05:00:00,24.7,22.4,30.33,North,0,0.0,0.0,91,0.00,CLR,,0.00,0.0,WeatherDisplay:10.37,2013-03-10 09:00:00,
2013-03-10 05:05:00,24.7,22.4,30.33,North,0,0.0,0.0,91,0.00,CLR,,0.00,0.0,WeatherDisplay:10.37,2013-03-10 09:05:00,
2013-03-10 05:10:00,24.6,22.3,30.33,North,0,0.0,0.0,91,0.00,CLR,,0.00,0.0,WeatherDisplay:10.37,2013-03-10 09:10:00,
2013-03-10 05:15:00,24.6,22.3,30.33,North,0,0.0,0.0,91,0.00,CLR,,0.00,0.0,WeatherDisplay:10.37,2013-03-10 09:15:00,
2013-03-10 05:20:00,24.7,22.4,30.34,North,0,0.0,0.0,91,0.00,CLR,,0.00,0.0,WeatherDisplay:10.37,2013-03-10 09:20:00,
2013-03-10 05:25:00,24.7,22.4,30.34,North,0,0.0,0.0,91,0.00,CLR,,0.00,0.0,WeatherDisplay:10.37,2013-03-10 09:25:00,
2013-03-10 05:30:00,24.8,22.5,30.34,North,0,0.0,0.0,91,0.00,CLR,,0.00,0.0,WeatherDisplay:10.37,2013-03-10 09:30:00,
2013-03-10 05:35:00,24.9,22.9,30.34,North,0,0.0,0.0,92,0.00,CLR,,0.00,0.0,WeatherDisplay:10.37,2013-03-10 09:35:00,
2013-03-10 05:40:00,25.0,23.0,30.34,North,0,0.0,0.0,92,0.00,CLR,,0.00,0.0,WeatherDisplay:10.37,2013-03-10 09:40:00,
2013-03-10 05:45:00,25.0,22.7,30.33,North,0,0.0,0.0,91,0.00,CLR,,0.00,0.0,WeatherDisplay:10.37,2013-03-10 09:45:00,
2013-03-10 05:50:00,25.0,22.7,30.34,North,0,0.0,0.0,91,0.00,CLR,,0.00,0.0,WeatherDisplay:10.37,2013-03-10 09:50:00,
2013-03-10 05:55:00,25.0,22.7,30.34,North,0,0.0,0.0,91,0.00,CLR,,0.00,0.0,WeatherDisplay:10.37,2013-03-10 09:55:00,
2013-03-10 06:00:00,25.1,22.8,30.34,North,0,0.0,0.0,91,0.00,CLR,,0.00,0.0,WeatherDisplay:10.37,2013-03-10 10:00:00,
2013-03-10 06:05:00,25.1,23.1,30.34,North,0,0.0,0.0,92,0.00,CLR,,0.00,0.0,WeatherDisplay:10.37,2013-03-10 10:05:00,
2013-03-10 06:10:00,25.1,23.1,30.33,North,0,0.0,0.0,92,0.00,CLR,,0.00,0.0,WeatherDisplay:10.37,2013-03-10 10:10:00,
2013-03-10 06:15:00,25.1,23.1,30.33,North,0,0.0,0.0,92,0.00,CLR,,0.00,0.0,WeatherDisplay:10.37,2013-03-10 10:15:00,
2013-03-10 06:20:00,25.0,23.0,30.33,North,0,0.0,0.0,92,0.00,CLR,,0.00,0.0,WeatherDisplay:10.37,2013-03-10 10:20:00,
2013-03-10 06:25:00,25.0,23.0,30.34,North,0,0.0,0.0,92,0.00,CLR,,0.00,0.0,WeatherDisplay:10.37,2013-03-10 10:25:00,
2013-03-10 06:30:00,24.9,22.9,30.33,North,0,0.0,0.0,92,0.00,CLR,,0.00,0.0,WeatherDisplay:10.37,2013-03-10 10:30:00,
2013-03-10 06:35:00,24.7,22.7,30.33,North,0,0.0,0.0,92,0.00,CLR,,0.00,0.0,WeatherDisplay:10.37,2013-03-10 10:35:00,
2013-03-10 06:40:00,24.5,22.5,30.33,North,0,0.0,0.0,92,0.00,CLR,,0.00,0.0,WeatherDisplay:10.37,2013-03-10 10:40:00,
2013-03-10 06:45:00,24.3,22.1,30.33,North,0,0.0,0.0,91,0.00,CLR,,0.00,0.0,WeatherDisplay:10.37,2013-03-10 10:45:00,
2013-03-10 06:50:00,24.3,22.3,30.33,North,0,0.0,0.0,92,0.00,CLR,,0.00,0.0,WeatherDisplay:10.37,2013-03-10 10:50:00,
2013-03-10 06:55:00,24.2,22.2,30.33,North,0,0.0,0.0,92,0.00,CLR,,0.00,0.0,WeatherDisplay:10.37,2013-03-10 10:55:00,
2013-03-10 07:00:00,24.1,22.1,30.33,North,0,0.0,0.0,92,0.00,OVC,,0.00,0.0,WeatherDisplay:10.37,2013-03-10 11:00:00,
2013-03-10 07:05:00,24.2,22.2,30.34,North,0,0.0,0.0,92,0.00,OVC,,0.00,0.0,WeatherDisplay:10.37,2013-03-10 11:05:00,
2013-03-10 07:10:00,24.2,22.2,30.34,North,0,0.0,0.0,92,0.00,OVC,,0.00,5.0,WeatherDisplay:10.37,2013-03-10 11:10:00,
2013-03-10 07:15:00,24.4,22.4,30.35,North,0,0.0,0.0,92,0.00,CLR,,0.00,9.0,WeatherDisplay:10.37,2013-03-10 11:15:00,
2013-03-10 07:20:00,24.5,22.5,30.35,North,0,0.0,0.0,92,0.00,FEW,,0.00,11.0,WeatherDisplay:10.37,2013-03-10 11:20:00,
2013-03-10 07:25:00,24.7,22.7,30.35,North,0,0.0,0.0,92,0.00,BKN,,0.00,12.0,WeatherDisplay:10.37,2013-03-10 11:25:00,
2013-03-10 07:30:00,24.8,22.8,30.35,North,0,0.0,0.0,92,0.00,BKN,,0.00,16.0,WeatherDisplay:10.37,2013-03-10 11:30:00,
2013-03-10 07:35:00,24.9,22.9,30.35,North,0,0.0,0.0,92,0.00,BKN,,0.00,18.0,WeatherDisplay:10.37,2013-03-10 11:35:00,
2013-03-10 07:40:00,24.9,22.9,30.35,North,0,0.0,0.0,92,0.00,BKN,,0.00,21.0,WeatherDisplay:10.37,2013-03-10 11:40:00,
2013-03-10 07:45:00,25.0,23.0,30.36,North,0,0.0,0.0,92,0.00,BKN,,0.00,23.0,WeatherDisplay:10.37,2013-03-10 11:45:00,
2013-03-10 07:50:00,25.0,23.0,30.36,North,0,0.0,0.0,92,0.00,BKN,,0.00,25.0,WeatherDisplay:10.37,2013-03-10 11:50:00,
2013-03-10 07:55:00,25.1,23.1,30.36,North,0,0.0,0.0,92,0.00,BKN,,0.00,28.0,WeatherDisplay:10.37,2013-03-10 11:55:00,
2013-03-10 08:00:00,25.2,23.2,30.36,North,0,0.0,0.0,92,0.00,BKN,,0.00,30.0,WeatherDisplay:10.37,2013-03-10 12:00:00,
2013-03-10 08:05:00,25.4,23.4,30.36,North,0,0.0,0.0,92,0.00,BKN,,0.00,32.0,WeatherDisplay:10.37,2013-03-10 12:05:00,
2013-03-10 08:10:00,25.6,23.6,30.36,North,0,0.0,0.0,92,0.00,BKN,,0.00,33.0,WeatherDisplay:10.37,2013-03-10 12:10:00,
2013-03-10 08:15:00,25.9,23.9,30.36,North,0,0.0,0.0,92,0.00,BKN,,0.00,44.0,WeatherDisplay:10.37,2013-03-10 12:15:00,
2013-03-10 08:20:00,26.2,24.2,30.37,North,0,0.0,0.0,92,0.00,BKN,,0.00,44.0,WeatherDisplay:10.37,2013-03-10 12:20:00,
2013-03-10 08:25:00,26.5,24.5,30.37,North,0,0.0,0.0,92,0.00,BKN,,0.00,42.0,WeatherDisplay:10.37,2013-03-10 12:25:00,
2013-03-10 08:30:00,26.8,24.8,30.37,North,0,0.0,0.0,92,0.00,BKN,,0.00,51.0,WeatherDisplay:10.37,2013-03-10 12:30:00,
2013-03-10 08:35:00,27.1,25.1,30.37,North,0,0.0,0.0,92,0.00,BKN,,0.00,47.0,WeatherDisplay:10.37,2013-03-10 12:35:00,
2013-03-10 08:40:00,27.3,25.3,30.37,North,0,0.0,0.0,92,0.00,BKN,,0.00,54.0,WeatherDisplay:10.37,2013-03-10 12:40:00,
2013-03-10 08:45:00,27.6,25.6,30.37,North,0,0.0,0.0,92,0.00,BKN,,0.00,58.0,WeatherDisplay:10.37,2013-03-10 12:45:00,
2013-03-10 08:50:00,27.8,25.8,30.36,North,0,0.0,0.0,92,0.00,BKN,,0.00,100.0,WeatherDisplay:10.37,2013-03-10 12:50:00,
2013-03-10 08:55:00,28.1,26.1,30.37,North,0,0.0,0.0,92,0.00,BKN,,0.00,127.0,WeatherDisplay:10.37,2013-03-10 12:55:00,
2013-03-10 09:00:00,28.5,26.5,30.37,North,0,0.0,0.0,92,0.00,SCT,,0.00,139.0,WeatherDisplay:10.37,2013-03-10 13:00:00,
2013-03-10 09:05:00,29.4,27.4,30.37,North,0,0.0,0.0,92,0.00,SCT,,0.00,121.0,WeatherDisplay:10.37,2013-03-10 13:05:00,
2013-03-10 09:10:00,30.4,28.4,30.37,North,0,0.0,0.0,92,0.00,BKN,,0.00,139.0,WeatherDisplay:10.37,2013-03-10 13:10:00,
2013-03-10 09:15:00,31.2,29.1,30.37,North,0,0.0,0.0,92,0.00,BKN,,0.00,121.0,WeatherDisplay:10.37,2013-03-10 13:15:00,
2013-03-10 09:20:00,31.8,29.7,30.37,North,0,0.0,0.0,92,0.00,BKN,,0.00,197.0,WeatherDisplay:10.37,2013-03-10 13:20:00,
2013-03-10 09:25:00,32.3,30.2,30.37,North,0,0.0,0.0,92,0.00,BKN,,0.00,232.0,WeatherDisplay:10.37,2013-03-10 13:25:00,
2013-03-10 09:30:00,32.7,30.6,30.37,North,0,0.0,0.0,92,0.00,SCT,,0.00,230.0,WeatherDisplay:10.37,2013-03-10 13:30:00,
2013-03-10 09:35:00,33.3,31.2,30.37,North,0,0.0,0.0,92,0.00,SCT,,0.00,206.0,WeatherDisplay:10.37,2013-03-10 13:35:00,
2013-03-10 09:40:00,33.9,31.8,30.37,North,0,0.0,0.0,92,0.00,SCT,,0.00,288.0,WeatherDisplay:10.37,2013-03-10 13:40:00,
2013-03-10 09:45:00,34.4,32.3,30.38,North,0,0.0,0.0,92,0.00,SCT,,0.00,167.0,WeatherDisplay:10.37,2013-03-10 13:45:00,
2013-03-10 09:50:00,34.8,32.7,30.37,North,0,0.0,0.0,92,0.00,BKN,,0.00,148.0,WeatherDisplay:10.37,2013-03-10 13:50:00,
2013-03-10 09:55:00,35.4,33.0,30.37,North,0,0.0,0.0,91,0.00,BKN,,0.00,304.0,WeatherDisplay:10.37,2013-03-10 13:55:00,
2013-03-10 10:00:00,35.8,33.2,30.37,North,0,0.0,0.0,90,0.00,FEW,,0.00,371.0,WeatherDisplay:10.37,2013-03-10 14:00:00,
2013-03-10 10:05:00,36.4,33.5,30.37,North,0,0.0,0.0,89,0.00,FEW,,0.00,410.0,WeatherDisplay:10.37,2013-03-10 14:05:00,
2013-03-10 10:10:00,37.0,33.5,30.38,North,0,0.0,0.0,87,0.00,FEW,,0.00,399.0,WeatherDisplay:10.37,2013-03-10 14:10:00,
2013-03-10 10:15:00,37.3,33.5,30.37,North,0,0.0,0.0,86,0.00,FEW,,0.00,253.0,WeatherDisplay:10.37,2013-03-10 14:15:00,
2013-03-10 10:20:00,37.6,33.2,30.37,North,0,0.0,0.0,84,0.00,SCT,,0.00,253.0,WeatherDisplay:10.37,2013-03-10 14:20:00,
2013-03-10 10:25:00,37.7,33.0,30.37,North,0,0.0,0.0,83,0.00,SCT,,0.00,199.0,WeatherDisplay:10.37,2013-03-10 14:25:00,
2013-03-10 10:30:00,38.0,33.3,30.38,North,0,0.0,0.0,83,0.01,RA,,0.01,571.0,WeatherDisplay:10.37,2013-03-10 14:30:00,
2013-03-10 10:35:00,38.1,32.8,30.38,North,0,0.0,0.0,81,0.01,RA,,0.01,594.0,WeatherDisplay:10.37,2013-03-10 14:35:00,
2013-03-10 10:40:00,38.4,33.1,30.37,North,0,0.0,0.0,81,0.01,CLR,,0.01,700.0,WeatherDisplay:10.37,2013-03-10 14:40:00,
2013-03-10 10:45:00,39.0,33.0,30.37,North,0,0.0,0.0,79,0.01,CLR,,0.01,712.0,WeatherDisplay:10.37,2013-03-10 14:45:00,
2013-03-10 10:50:00,38.9,32.6,30.37,North,0,0.0,0.0,78,0.02,RA,,0.02,561.0,WeatherDisplay:10.37,2013-03-10 14:50:00,
2013-03-10 10:55:00,38.9,32.6,30.37,North,0,0.0,0.0,78,0.02,RA,,0.02,292.0,WeatherDisplay:10.37,2013-03-10 14:55:00,
2013-03-10 11:00:00,38.8,32.5,30.37,North,0,0.0,0.0,78,0.02,FEW,,0.02,643.0,WeatherDisplay:10.37,2013-03-10 15:00:00,
2013-03-10 11:05:00,39.2,32.9,30.37,North,0,0.0,0.0,78,0.03,RA,,0.03,410.0,WeatherDisplay:10.37,2013-03-10 15:05:00,
2013-03-10 11:10:00,39.3,33.0,30.37,North,0,0.0,0.0,78,0.03,RA,,0.03,216.0,WeatherDisplay:10.37,2013-03-10 15:10:00,
2013-03-10 11:15:00,39.3,32.7,30.37,North,0,0.0,0.0,77,0.03,FEW,,0.03,671.0,WeatherDisplay:10.37,2013-03-10 15:15:00,
2013-03-10 11:20:00,39.4,32.8,30.38,North,0,0.0,0.0,77,0.03,SCT,,0.03,294.0,WeatherDisplay:10.37,2013-03-10 15:20:00,
2013-03-10 11:25:00,39.3,32.7,30.37,North,0,0.0,0.0,77,0.04,RA,,0.04,367.0,WeatherDisplay:10.37,2013-03-10 15:25:00,
2013-03-10 11:30:00,39.3,32.7,30.37,North,0,0.0,0.0,77,0.03,RA,,0.04,438.0,WeatherDisplay:10.37,2013-03-10 15:30:00,
2013-03-10 11:35:00,39.6,33.0,30.37,North,0,0.0,0.0,77,0.03,FEW,,0.04,802.0,WeatherDisplay:10.37,2013-03-10 15:35:00,
2013-03-10 11:40:00,40.0,32.7,30.37,North,0,0.0,0.0,75,0.03,FEW,,0.04,499.0,WeatherDisplay:10.37,2013-03-10 15:40:00,
2013-03-10 11:45:00,39.8,32.8,30.36,North,0,0.0,0.0,76,0.04,RA,,0.05,710.0,WeatherDisplay:10.37,2013-03-10 15:45:00,
2013-03-10 11:50:00,40.4,33.4,30.36,North,0,0.0,0.0,76,0.03,RA,,0.05,715.0,WeatherDisplay:10.37,2013-03-10 15:50:00,
2013-03-10 11:55:00,40.5,32.9,30.36,North,0,0.0,0.0,74,0.03,CLR,,0.05,515.0,WeatherDisplay:10.37,2013-03-10 15:55:00,
2013-03-10 12:00:00,40.9,33.6,30.36,North,0,0.0,0.0,75,0.04,RA,,0.06,703.0,WeatherDisplay:10.37,2013-03-10 16:00:00,
2013-03-10 12:05:00,41.3,33.3,30.36,North,0,0.0,0.0,73,0.04,RA,,0.06,701.0,WeatherDisplay:10.37,2013-03-10 16:05:00,
2013-03-10 12:11:00,41.0,33.0,30.36,North,0,0.0,0.0,73,0.03,CLR,,0.06,721.0,WeatherDisplay:10.37,2013-03-10 16:11:00,
2013-03-10 12:16:00,41.0,33.0,30.36,North,0,0.0,0.0,73,0.03,CLR,,0.06,707.0,WeatherDisplay:10.37,2013-03-10 16:16:00,
2013-03-10 12:21:00,40.8,34.1,30.35,North,0,0.0,0.0,77,0.04,RA,,0.07,700.0,WeatherDisplay:10.37,2013-03-10 16:21:00,
2013-03-10 12:26:00,41.0,33.0,30.35,North,0,0.0,0.0,73,0.03,RA,,0.07,710.0,WeatherDisplay:10.37,2013-03-10 16:26:00,
2013-03-10 12:31:00,41.0,33.0,30.35,North,0,0.0,0.0,73,0.03,CLR,,0.07,710.0,WeatherDisplay:10.37,2013-03-10 16:31:00,
2013-03-10 12:36:00,41.1,33.1,30.35,North,0,0.0,0.0,73,0.03,CLR,,0.07,715.0,WeatherDisplay:10.37,2013-03-10 16:36:00,
2013-03-10 12:41:00,41.7,33.3,30.35,North,0,0.0,0.0,72,0.03,CLR,,0.08,717.0,WeatherDisplay:10.37,2013-03-10 16:41:00,
2013-03-10 12:46:00,41.5,33.1,30.35,North,0,0.0,0.0,72,0.03,RA,,0.08,717.0,WeatherDisplay:10.37,2013-03-10 16:46:00,
2013-03-10 12:51:00,41.7,33.0,30.35,North,0,0.0,0.0,71,0.03,RA,,0.08,724.0,WeatherDisplay:10.37,2013-03-10 16:51:00,
2013-03-10 12:56:00,41.8,33.1,30.34,North,0,0.0,0.0,71,0.03,CLR,,0.08,733.0,WeatherDisplay:10.37,2013-03-10 16:56:00,
2013-03-10 13:01:00,42.0,33.3,30.35,North,0,0.0,0.0,71,0.02,CLR,,0.08,724.0,WeatherDisplay:10.37,2013-03-10 17:01:00,
2013-03-10 13:06:00,42.6,33.5,30.34,North,0,0.0,0.0,70,0.02,CLR,,0.08,719.0,WeatherDisplay:10.37,2013-03-10 17:06:00,
2013-03-10 13:11:00,42.5,33.4,30.34,North,0,0.0,0.0,70,0.02,CLR,,0.08,717.0,WeatherDisplay:10.37,2013-03-10 17:11:00,
2013-03-10 13:16:00,42.5,33.4,30.34,North,0,0.0,0.0,70,0.02,CLR,,0.08,717.0,WeatherDisplay:10.37,2013-03-10 17:16:00,
2013-03-10 13:21:00,42.5,33.4,30.34,North,0,0.0,0.0,70,0.01,CLR,,0.08,715.0,WeatherDisplay:10.37,2013-03-10 17:21:00,
2013-03-10 13:26:00,42.3,33.6,30.34,North,0,0.0,0.0,71,0.01,CLR,,0.08,715.0,WeatherDisplay:10.37,2013-03-10 17:26:00,
2013-03-10 13:31:00,43.1,34.0,30.34,North,0,0.0,0.0,70,0.01,CLR,,0.08,715.0,WeatherDisplay:10.37,2013-03-10 17:31:00,
2013-03-10 13:36:00,43.0,33.5,30.34,North,0,0.0,0.0,69,0.01,CLR,,0.08,703.0,WeatherDisplay:10.37,2013-03-10 17:36:00,
2013-03-10 13:41:00,43.3,33.4,30.34,North,0,0.0,0.0,68,0.01,CLR,,0.08,705.0,WeatherDisplay:10.37,2013-03-10 17:41:00,
2013-03-10 13:46:00,43.5,33.6,30.33,North,0,0.0,0.0,68,0.00,CLR,,0.08,705.0,WeatherDisplay:10.37,2013-03-10 17:46:00,
2013-03-10 13:51:00,44.4,34.5,30.33,North,0,0.0,0.0,68,0.00,CLR,,0.08,698.0,WeatherDisplay:10.37,2013-03-10 17:51:00,
2013-03-10 13:56:00,44.1,33.8,30.33,North,0,0.0,0.0,67,0.00,CLR,,0.08,694.0,WeatherDisplay:10.37,2013-03-10 17:56:00,
2013-03-10 14:01:00,44.2,33.6,30.32,North,0,0.0,0.0,66,0.00,CLR,,0.08,693.0,WeatherDisplay:10.37,2013-03-10 18:01:00,
2013-03-10 14:06:00,44.7,33.6,30.32,North,0,0.0,0.0,65,0.00,CLR,,0.08,687.0,WeatherDisplay:10.37,2013-03-10 18:06:00,
2013-03-10 14:11:00,44.3,33.7,30.32,North,0,0.0,0.0,66,0.00,CLR,,0.08,680.0,WeatherDisplay:10.37,2013-03-10 18:11:00,
2013-03-10 14:16:00,44.4,33.7,30.32,North,0,0.0,0.0,66,0.00,CLR,,0.08,684.0,WeatherDisplay:10.37,2013-03-10 18:16:00,
2013-03-10 14:21:00,44.6,33.6,30.32,North,0,0.0,0.0,65,0.00,CLR,,0.08,675.0,WeatherDisplay:10.37,2013-03-10 18:21:00,
2013-03-10 14:26:00,44.6,33.2,30.33,North,0,0.0,0.0,64,0.00,CLR,,0.08,663.0,WeatherDisplay:10.37,2013-03-10 18:26:00,
2013-03-10 14:31:00,44.6,33.2,30.32,North,0,0.0,0.0,64,0.00,CLR,,0.08,654.0,WeatherDisplay:10.37,2013-03-10 18:31:00,
2013-03-10 14:36:00,44.4,33.0,30.32,North,0,0.0,0.0,64,0.00,CLR,,0.08,643.0,WeatherDisplay:10.37,2013-03-10 18:36:00,
2013-03-10 14:41:00,44.5,33.1,30.32,North,0,0.0,0.0,64,0.00,CLR,,0.08,494.0,WeatherDisplay:10.37,2013-03-10 18:41:00,
2013-03-10 14:46:00,44.6,33.6,30.32,North,0,0.0,0.0,65,0.00,SCT,,0.08,496.0,WeatherDisplay:10.37,2013-03-10 18:46:00,
2013-03-10 14:51:00,44.3,32.9,30.31,North,0,0.0,0.0,64,0.00,FEW,,0.08,448.0,WeatherDisplay:10.37,2013-03-10 18:51:00,
2013-03-10 14:56:00,44.3,33.3,30.31,North,0,0.0,0.0,65,0.00,FEW,,0.08,462.0,WeatherDisplay:10.37,2013-03-10 18:56:00,
2013-03-10 15:01:00,44.7,33.6,30.31,North,0,0.0,0.0,65,0.00,SCT,,0.08,295.0,WeatherDisplay:10.37,2013-03-10 19:01:00,
2013-03-10 15:06:00,44.7,33.3,30.31,North,0,0.0,0.0,64,0.00,BKN,,0.08,213.0,WeatherDisplay:10.37,2013-03-10 19:06:00,
2013-03-10 15:11:00,44.3,32.9,30.31,North,0,0.0,0.0,64,0.00,BKN,,0.08,246.0,WeatherDisplay:10.37,2013-03-10 19:11:00,
2013-03-10 15:16:00,44.2,33.6,30.30,North,0,0.0,0.0,66,0.00,BKN,,0.08,193.0,WeatherDisplay:10.37,2013-03-10 19:16:00,
2013-03-10 15:21:00,44.3,33.3,30.30,North,0,0.0,0.0,65,0.00,BKN,,0.08,260.0,WeatherDisplay:10.37,2013-03-10 19:21:00,
2013-03-10 15:26:00,44.4,33.4,30.31,North,0,0.0,0.0,65,0.00,BKN,,0.08,227.0,WeatherDisplay:10.37,2013-03-10 19:26:00,
2013-03-10 15:31:00,44.3,33.3,30.31,North,0,0.0,0.0,65,0.01,RA,,0.09,188.0,WeatherDisplay:10.37,2013-03-10 19:31:00,
2013-03-10 15:36:00,43.8,32.8,30.31,North,0,0.0,0.0,65,0.01,RA,,0.09,288.0,WeatherDisplay:10.37,2013-03-10 19:36:00,
2013-03-10 15:41:00,43.6,32.6,30.30,North,0,0.0,0.0,65,0.01,SCT,,0.09,250.0,WeatherDisplay:10.37,2013-03-10 19:41:00,
2013-03-10 15:46:00,44.0,33.0,30.30,North,0,0.0,0.0,65,0.01,BKN,,0.09,195.0,WeatherDisplay:10.37,2013-03-10 19:46:00,
2013-03-10 15:52:00,43.9,33.3,30.30,North,0,0.0,0.0,66,0.01,BKN,,0.09,171.0,WeatherDisplay:10.37,2013-03-10 19:52:00,
2013-03-10 15:57:00,44.1,33.1,30.30,North,0,0.0,0.0,65,0.01,SCT,,0.09,408.0,WeatherDisplay:10.37,2013-03-10 19:57:00,
2013-03-10 16:02:00,43.9,32.9,30.31,North,0,0.0,0.0,65,0.01,SCT,,0.09,221.0,WeatherDisplay:10.37,2013-03-10 20:02:00,
2013-03-10 16:07:00,43.9,32.9,30.30,North,0,0.0,0.0,65,0.01,BKN,,0.09,174.0,WeatherDisplay:10.37,2013-03-10 20:07:00,
2013-03-10 16:12:00,44.1,33.5,30.31,North,0,0.0,0.0,66,0.01,BKN,,0.09,84.0,WeatherDisplay:10.37,2013-03-10 20:12:00,
2013-03-10 16:17:00,44.2,33.2,30.30,North,0,0.0,0.0,65,0.01,BKN,,0.09,248.0,WeatherDisplay:10.37,2013-03-10 20:17:00,
2013-03-10 16:22:00,44.2,33.2,30.30,North,0,0.0,0.0,65,0.01,BKN,,0.09,62.0,WeatherDisplay:10.37,2013-03-10 20:22:00,
2013-03-10 16:27:00,44.2,33.2,30.30,North,0,0.0,0.0,65,0.01,BKN,,0.09,192.0,WeatherDisplay:10.37,2013-03-10 20:27:00,
2013-03-10 16:32:00,44.1,33.1,30.30,North,0,0.0,0.0,65,0.00,BKN,,0.09,153.0,WeatherDisplay:10.37,2013-03-10 20:32:00,
2013-03-10 16:37:00,44.1,33.1,30.30,North,0,0.0,0.0,65,0.00,BKN,,0.09,130.0,WeatherDisplay:10.37,2013-03-10 20:37:00,
2013-03-10 16:42:00,44.1,33.1,30.30,North,0,0.0,0.0,65,0.00,BKN,,0.09,69.0,WeatherDisplay:10.37,2013-03-10 20:42:00,
2013-03-10 16:47:00,44.3,33.3,30.30,North,0,0.0,0.0,65,0.00,BKN,,0.09,81.0,WeatherDisplay:10.37,2013-03-10 20:47:00,
2013-03-10 16:52:00,44.3,33.3,30.30,North,0,0.0,0.0,65,0.00,BKN,,0.09,91.0,WeatherDisplay:10.37,2013-03-10 20:52:00,
2013-03-10 16:57:00,44.3,33.3,30.30,North,0,0.0,0.0,65,0.00,BKN,,0.09,116.0,WeatherDisplay:10.37,2013-03-10 20:57:00,
2013-03-10 17:03:00,44.2,33.2,30.29,North,0,0.0,0.0,65,0.00,BKN,,0.09,86.0,WeatherDisplay:10.37,2013-03-10 21:03:00,
2013-03-10 17:08:00,44.1,33.5,30.29,North,0,0.0,0.0,66,0.00,BKN,,0.09,93.0,WeatherDisplay:10.37,2013-03-10 21:08:00,
2013-03-10 17:13:00,44.1,33.5,30.29,North,0,0.0,0.0,66,0.00,BKN,,0.09,63.0,WeatherDisplay:10.37,2013-03-10 21:13:00,
2013-03-10 17:18:00,44.2,33.2,30.29,North,0,0.0,0.0,65,0.00,BKN,,0.09,76.0,WeatherDisplay:10.37,2013-03-10 21:18:00,
2013-03-10 17:23:00,44.3,33.3,30.29,North,0,0.0,0.0,65,0.00,BKN,,0.09,95.0,WeatherDisplay:10.37,2013-03-10 21:23:00,
2013-03-10 17:28:00,44.2,33.2,30.29,North,0,0.0,0.0,65,0.00,BKN,,0.09,56.0,WeatherDisplay:10.37,2013-03-10 21:28:00,
2013-03-10 17:33:00,44.2,33.2,30.29,North,0,0.0,0.0,65,0.00,BKN,,0.09,83.0,WeatherDisplay:10.37,2013-03-10 21:33:00,
2013-03-10 17:38:00,44.3,33.3,30.29,North,0,0.0,0.0,65,0.00,BKN,,0.09,47.0,WeatherDisplay:10.37,2013-03-10 21:38:00,
2013-03-10 17:43:00,44.3,33.7,30.29,North,0,0.0,0.0,66,0.00,BKN,,0.09,33.0,WeatherDisplay:10.37,2013-03-10 21:43:00,
2013-03-10 17:48:00,44.2,33.6,30.29,North,0,0.0,0.0,66,0.00,BKN,,0.09,35.0,WeatherDisplay:10.37,2013-03-10 21:48:00,
2013-03-10 17:53:00,44.1,33.5,30.28,North,0,0.0,0.0,66,0.00,BKN,,0.09,30.0,WeatherDisplay:10.37,2013-03-10 21:53:00,
2013-03-10 17:58:00,44.0,33.7,30.28,North,0,0.0,0.0,67,0.00,BKN,,0.09,26.0,WeatherDisplay:10.37,2013-03-10 21:58:00,
2013-03-10 18:03:00,43.9,33.3,30.29,North,0,0.0,0.0,66,0.00,BKN,,0.09,23.0,WeatherDisplay:10.37,2013-03-10 22:03:00,
2013-03-10 18:08:00,43.8,33.6,30.29,North,0,0.0,0.0,67,0.00,BKN,,0.09,21.0,WeatherDisplay:10.37,2013-03-10 22:08:00,
2013-03-10 18:13:00,43.6,33.4,30.28,North,0,0.0,0.0,67,0.00,BKN,,0.09,18.0,WeatherDisplay:10.37,2013-03-10 22:13:00,
2013-03-10 18:18:00,43.3,33.4,30.28,North,0,0.0,0.0,68,0.00,BKN,,0.09,14.0,WeatherDisplay:10.37,2013-03-10 22:18:00,
2013-03-10 18:23:00,43.1,33.3,30.28,North,0,0.0,0.0,68,0.00,BKN,,0.09,12.0,WeatherDisplay:10.37,2013-03-10 22:23:00,
2013-03-10 18:28:00,42.9,33.4,30.29,North,0,0.0,0.0,69,0.00,BKN,,0.09,9.0,WeatherDisplay:10.37,2013-03-10 22:28:00,
2013-03-10 18:33:00,42.6,33.1,30.29,North,0,0.0,0.0,69,0.00,BKN,,0.09,7.0,WeatherDisplay:10.37,2013-03-10 22:33:00,
2013-03-10 18:38:00,42.4,33.3,30.29,North,0,0.0,0.0,70,0.00,BKN,,0.09,5.0,WeatherDisplay:10.37,2013-03-10 22:38:00,
2013-03-10 18:43:00,42.0,33.3,30.30,North,0,0.0,0.0,71,0.00,OVC,,0.09,0.0,WeatherDisplay:10.37,2013-03-10 22:43:00,
2013-03-10 18:48:00,41.7,33.0,30.30,North,0,0.0,0.0,71,0.00,OVC,,0.09,0.0,WeatherDisplay:10.37,2013-03-10 22:48:00,
2013-03-10 18:53:00,41.4,33.0,30.29,North,0,0.0,0.0,72,0.00,OVC,,0.09,0.0,WeatherDisplay:10.37,2013-03-10 22:53:00,
2013-03-10 18:58:00,41.1,33.1,30.29,North,0,0.0,0.0,73,0.00,OVC,,0.09,0.0,WeatherDisplay:10.37,2013-03-10 22:58:00,
2013-03-10 19:03:00,40.8,32.8,30.29,North,0,0.0,0.0,73,0.00,CLR,,0.09,0.0,WeatherDisplay:10.37,2013-03-10 23:03:00,
2013-03-10 19:08:00,40.4,32.8,30.29,North,0,0.0,0.0,74,0.00,CLR,,0.09,0.0,WeatherDisplay:10.37,2013-03-10 23:08:00,
2013-03-10 19:13:00,40.1,32.5,30.29,North,0,0.0,0.0,74,0.00,CLR,,0.09,0.0,WeatherDisplay:10.37,2013-03-10 23:13:00,
2013-03-10 19:18:00,39.8,32.5,30.30,North,0,0.0,0.0,75,0.00,CLR,,0.09,0.0,WeatherDisplay:10.37,2013-03-10 23:18:00,
2013-03-10 19:23:00,39.6,32.3,30.30,North,0,0.0,0.0,75,0.00,CLR,,0.09,0.0,WeatherDisplay:10.37,2013-03-10 23:23:00,
2013-03-10 19:28:00,39.3,32.0,30.30,North,0,0.0,0.0,75,0.00,CLR,,0.09,0.0,WeatherDisplay:10.37,2013-03-10 23:28:00,
2013-03-10 19:33:00,39.1,32.2,30.30,North,0,0.0,0.0,76,0.00,CLR,,0.09,0.0,WeatherDisplay:10.37,2013-03-10 23:33:00,
2013-03-10 19:38:00,38.8,32.2,30.30,North,0,0.0,0.0,77,0.00,CLR,,0.09,0.0,WeatherDisplay:10.37,2013-03-10 23:38:00,
2013-03-10 19:43:00,38.6,32.0,30.30,North,0,0.0,0.0,77,0.00,CLR,,0.09,0.0,WeatherDisplay:10.37,2013-03-10 23:43:00,
2013-03-10 19:48:00,38.4,32.1,30.30,North,0,0.0,0.0,78,0.00,CLR,,0.09,0.0,WeatherDisplay:10.37,2013-03-10 23:48:00,
2013-03-10 19:53:00,38.1,32.2,30.30,North,0,0.0,0.0,79,0.00,CLR,,0.09,0.0,WeatherDisplay:10.37,2013-03-10 23:53:00,
2013-03-10 19:58:00,38.0,32.1,30.30,North,0,0.0,0.0,79,0.00,CLR,,0.09,0.0,WeatherDisplay:10.37,2013-03-10 23:58:00,
2013-03-10 20:03:00,37.8,31.9,30.30,North,0,0.0,0.0,79,0.00,CLR,,0.09,0.0,WeatherDisplay:10.37,2013-03-11 00:03:00,
2013-03-10 20:08:00,37.7,31.8,30.30,North,0,0.0,0.0,79,0.00,CLR,,0.09,0.0,WeatherDisplay:10.37,2013-03-11 00:08:00,
2013-03-10 20:13:00,37.6,32.0,30.31,North,0,0.0,0.0,80,0.00,CLR,,0.09,0.0,WeatherDisplay:10.37,2013-03-11 00:13:00,
2013-03-10 20:18:00,37.5,31.9,30.31,North,0,0.0,0.0,80,0.00,CLR,,0.09,0.0,WeatherDisplay:10.37,2013-03-11 00:18:00,
2013-03-10 20:23:00,37.4,31.8,30.31,North,0,0.0,0.0,80,0.00,CLR,,0.09,0.0,WeatherDisplay:10.37,2013-03-11 00:23:00,
2013-03-10 20:28:00,37.2,31.6,30.31,North,0,0.0,0.0,80,0.00,CLR,,0.09,0.0,WeatherDisplay:10.37,2013-03-11 00:28:00,
2013-03-10 20:33:00,37.1,31.8,30.31,North,0,0.0,0.0,81,0.00,CLR,,0.09,0.0,WeatherDisplay:10.37,2013-03-11 00:33:00,
2013-03-10 20:38:00,37.0,31.7,30.30,North,0,0.0,0.0,81,0.00,CLR,,0.09,0.0,WeatherDisplay:10.37,2013-03-11 00:38:00,
2013-03-10 20:43:00,36.8,31.5,30.31,North,0,0.0,0.0,81,0.00,CLR,,0.09,0.0,WeatherDisplay:10.37,2013-03-11 00:43:00,
2013-03-10 20:48:00,36.7,31.4,30.30,North,0,0.0,0.0,81,0.00,CLR,,0.09,0.0,WeatherDisplay:10.37,2013-03-11 00:48:00,
2013-03-10 20:53:00,36.6,31.3,30.30,North,0,0.0,0.0,81,0.00,CLR,,0.09,0.0,WeatherDisplay:10.37,2013-03-11 00:53:00,
2013-03-10 20:58:00,36.4,31.1,30.30,North,0,0.0,0.0,81,0.00,CLR,,0.09,0.0,WeatherDisplay:10.37,2013-03-11 00:58:00,
2013-03-10 21:03:00,36.2,30.9,30.29,North,0,0.0,0.0,81,0.00,CLR,,0.09,0.0,WeatherDisplay:10.37,2013-03-11 01:03:00,
2013-03-10 21:08:00,36.1,31.1,30.30,North,0,0.0,0.0,82,0.00,CLR,,0.09,0.0,WeatherDisplay:10.37,2013-03-11 01:08:00,
2013-03-10 21:14:00,35.9,30.9,30.31,North,0,0.0,0.0,82,0.00,CLR,,0.09,0.0,WeatherDisplay:10.37,2013-03-11 01:14:00,
2013-03-10 21:19:00,35.7,31.0,30.30,North,0,0.0,0.0,83,0.00,CLR,,0.09,0.0,WeatherDisplay:10.37,2013-03-11 01:19:00,
2013-03-10 21:24:00,35.6,30.9,30.30,North,0,0.0,0.0,83,0.00,CLR,,0.09,0.0,WeatherDisplay:10.37,2013-03-11 01:24:00,
2013-03-10 21:29:00,35.5,30.8,30.29,North,0,0.0,0.0,83,0.00,CLR,,0.09,0.0,WeatherDisplay:10.37,2013-03-11 01:29:00,
2013-03-10 21:34:00,35.4,30.8,30.29,North,0,0.0,0.0,83,0.00,CLR,,0.09,0.0,WeatherDisplay:10.37,2013-03-11 01:34:00,
2013-03-10 21:39:00,35.3,30.9,30.29,North,0,0.0,0.0,84,0.00,CLR,,0.09,0.0,WeatherDisplay:10.37,2013-03-11 01:39:00,
2013-03-10 21:44:00,35.4,31.3,30.29,North,0,0.0,0.0,85,0.00,CLR,,0.09,0.0,WeatherDisplay:10.37,2013-03-11 01:44:00,
2013-03-10 21:49:00,35.6,31.5,30.29,North,0,0.0,0.0,85,0.00,CLR,,0.09,0.0,WeatherDisplay:10.37,2013-03-11 01:49:00,
2013-03-10 21:54:00,35.8,31.7,30.29,North,0,0.0,0.0,85,0.00,CLR,,0.09,0.0,WeatherDisplay:10.37,2013-03-11 01:54:00,
2013-03-10 21:59:00,35.9,31.8,30.29,North,0,0.0,0.0,85,0.00,CLR,,0.09,0.0,WeatherDisplay:10.37,2013-03-11 01:59:00,
2013-03-10 22:04:00,36.0,31.9,30.29,North,0,0.0,0.0,85,0.00,CLR,,0.09,0.0,WeatherDisplay:10.37,2013-03-11 02:04:00,
2013-03-10 22:09:00,36.1,32.0,30.30,North,0,0.0,0.0,85,0.00,CLR,,0.09,0.0,WeatherDisplay:10.37,2013-03-11 02:09:00,
2013-03-10 22:14:00,36.2,32.1,30.30,North,0,0.0,0.0,85,0.00,CLR,,0.09,0.0,WeatherDisplay:10.37,2013-03-11 02:14:00,
2013-03-10 22:19:00,36.2,31.8,30.29,North,0,0.0,0.0,84,0.00,CLR,,0.09,0.0,WeatherDisplay:10.37,2013-03-11 02:19:00,
2013-03-10 22:24:00,36.2,31.8,30.29,North,0,0.0,0.0,84,0.00,CLR,,0.09,0.0,WeatherDisplay:10.37,2013-03-11 02:24:00,
2013-03-10 22:29:00,36.1,31.7,30.29,North,0,0.0,0.0,84,0.00,CLR,,0.09,0.0,WeatherDisplay:10.37,2013-03-11 02:29:00,
2013-03-10 22:34:00,36.1,31.7,30.29,North,0,0.0,0.0,84,0.00,CLR,,0.09,0.0,WeatherDisplay:10.37,2013-03-11 02:34:00,
2013-03-10 22:39:00,36.0,31.6,30.29,North,0,0.0,0.0,84,0.00,CLR,,0.09,0.0,WeatherDisplay:10.37,2013-03-11 02:39:00,
2013-03-10 22:44:00,36.0,31.6,30.29,North,0,0.0,0.0,84,0.00,CLR,,0.09,0.0,WeatherDisplay:10.37,2013-03-11 02:44:00,
2013-03-10 22:49:00,35.9,31.5,30.30,North,0,0.0,0.0,84,0.00,CLR,,0.09,0.0,WeatherDisplay:10.37,2013-03-11 02:49:00,
2013-03-10 22:54:00,35.9,31.8,30.29,North,0,0.0,0.0,85,0.00,CLR,,0.09,0.0,WeatherDisplay:10.37,2013-03-11 02:54:00,
2013-03-10 22:59:00,35.8,31.7,30.30,North,0,0.0,0.0,85,0.00,CLR,,0.09,0.0,WeatherDisplay:10.37,2013-03-11 02:59:00,
2013-03-10 23:04:00,35.8,31.7,30.30,North,0,0.0,0.0,85,0.00,CLR,,0.09,0.0,WeatherDisplay:10.37,2013-03-11 03:04:00,
2013-03-10 23:09:00,35.7,31.6,30.30,North,0,0.0,0.0,85,0.00,CLR,,0.09,0.0,WeatherDisplay:10.37,2013-03-11 03:09:00,
2013-03-10 23:14:00,35.7,31.6,30.29,North,0,0.0,0.0,85,0.00,CLR,,0.09,0.0,WeatherDisplay:10.37,2013-03-11 03:14:00,
2013-03-10 23:19:00,35.7,31.6,30.29,North,0,0.0,0.0,85,0.00,CLR,,0.09,0.0,WeatherDisplay:10.37,2013-03-11 03:19:00,
2013-03-10 23:24:00,35.6,31.5,30.29,North,0,0.0,0.0,85,0.00,CLR,,0.09,0.0,WeatherDisplay:10.37,2013-03-11 03:24:00,
2013-03-10 23:29:00,35.6,31.5,30.29,North,0,0.0,0.0,85,0.00,CLR,,0.09,0.0,WeatherDisplay:10.37,2013-03-11 03:29:00,
2013-03-10 23:34:00,35.5,31.4,30.29,North,0,0.0,0.0,85,0.00,CLR,,0.09,0.0,WeatherDisplay:10.37,2013-03-11 03:34:00,
2013-03-10 23:39:00,35.4,31.3,30.28,North,0,0.0,0.0,85,0.00,CLR,,0.09,0.0,WeatherDisplay:10.37,2013-03-11 03:39:00,
2013-03-10 23:44:00,35.3,31.2,30.28,North,0,0.0,0.0,85,0.00,CLR,,0.09,0.0,WeatherDisplay:10.37,2013-03-11 03:44:00,
2013-03-10 23:49:00,35.2,31.1,30.28,North,0,0.0,0.0,85,0.00,CLR,,0.09,0.0,WeatherDisplay:10.37,2013-03-11 03:49:00,
2013-03-10 23:54:00,35.2,31.1,30.27,North,0,0.0,0.0,85,0.00,CLR,,0.09,0.0,WeatherDisplay:10.37,2013-03-11 03:54:00,
2013-03-10 23:59:00,35.0,31.2,30.27,North,0,0.0,0.0,86,0.00,CLR,,0.09,0.0,WeatherDisplay:10.37,2013-03-11 03:59:00,